Time,TemperatureF,DewpointF,PressureIn,WindDirection,WindDirectionDegrees,WindSpeedMPH,WindSpeedGustMPH,Humidity,HourlyPrecipIn,Conditions,Clouds,dailyrainin,SoftwareType,DateUTC
2013-01-02 00:00:00,26.5,17.0,29.94,West,280,2.0,17.0,67,0.00,,---,0.00,VWS V14.01,2013-01-02 05:00:00,
2013-01-02 00:01:00,26.5,17.4,29.94,WNW,286,8.0,17.0,68,0.00,,---,0.00,VWS V14.01,2013-01-02 05:01:00,
2013-01-02 00:02:00,26.5,17.0,29.94,WNW,292,11.0,11.0,67,0.00,,---,0.00,VWS V14.01,2013-01-02 05:02:00,
2013-01-02 00:07:00,26.4,16.6,29.94,NW,323,6.0,11.0,66,0.00,,---,0.00,VWS V14.01,2013-01-02 05:07:00,
2013-01-02 00:12:00,26.2,16.8,29.94,NW,311,0.0,11.0,67,0.00,,---,0.00,VWS V14.01,2013-01-02 05:12:00,
2013-01-02 00:17:00,26.2,16.8,29.94,WNW,299,3.0,12.0,67,0.00,,---,0.00,VWS V14.01,2013-01-02 05:17:00,
2013-01-02 00:22:00,26.1,16.3,29.94,WNW,292,3.0,14.0,66,0.00,,---,0.00,VWS V14.01,2013-01-02 05:22:00,
2013-01-02 00:27:00,25.9,16.1,29.94,WNW,302,4.0,21.0,66,0.00,,---,0.00,VWS V14.01,2013-01-02 05:27:00,
2013-01-02 00:32:00,25.8,15.7,29.94,SW,230,2.0,7.0,65,0.00,,---,0.00,VWS V14.01,2013-01-02 05:32:00,
2013-01-02 00:37:00,25.7,15.9,29.94,WNW,285,4.0,13.0,66,0.00,,---,0.00,VWS V14.01,2013-01-02 05:37:00,
2013-01-02 00:42:00,25.6,15.5,29.94,WNW,295,9.0,16.0,65,0.00,,---,0.00,VWS V14.01,2013-01-02 05:42:00,
2013-01-02 00:47:00,25.4,15.3,29.95,NW,313,8.0,18.0,65,0.00,,---,0.00,VWS V14.01,2013-01-02 05:47:00,
2013-01-02 00:52:00,25.3,15.2,29.94,West,261,3.0,18.0,65,0.00,,---,0.00,VWS V14.01,2013-01-02 05:52:00,
2013-01-02 00:57:00,25.2,15.1,29.94,NW,323,3.0,18.0,65,0.00,,---,0.00,VWS V14.01,2013-01-02 05:57:00,
2013-01-02 01:02:00,25.1,15.0,29.94,NW,320,3.0,15.0,65,0.00,,---,0.00,VWS V14.01,2013-01-02 06:02:00,
2013-01-02 01:07:00,25.0,14.9,29.95,WNW,294,6.0,15.0,65,0.00,,---,0.00,VWS V14.01,2013-01-02 06:07:00,
2013-01-02 01:12:00,24.9,14.5,29.94,WNW,299,6.0,15.0,64,0.00,,---,0.00,VWS V14.01,2013-01-02 06:12:00,
2013-01-02 01:17:00,24.7,14.6,29.94,NW,315,6.0,15.0,65,0.00,,---,0.00,VWS V14.01,2013-01-02 06:17:00,
2013-01-02 01:22:00,24.6,14.2,29.94,West,273,4.0,17.0,64,0.00,,---,0.00,VWS V14.01,2013-01-02 06:22:00,
2013-01-02 01:27:00,24.5,14.1,29.95,West,281,0.0,17.0,64,0.00,,---,0.00,VWS V14.01,2013-01-02 06:27:00,
2013-01-02 01:32:00,24.4,14.0,29.95,NW,310,3.0,14.0,64,0.00,,---,0.00,VWS V14.01,2013-01-02 06:32:00,
2013-01-02 01:37:00,24.2,13.8,29.95,NW,309,17.0,17.0,64,0.00,,---,0.00,VWS V14.01,2013-01-02 06:37:00,
2013-01-02 01:42:00,24.2,14.1,29.95,West,278,0.0,17.0,65,0.00,,---,0.00,VWS V14.01,2013-01-02 06:42:00,
2013-01-02 01:47:00,24.1,14.4,29.95,WNW,294,7.0,17.0,66,0.00,,---,0.00,VWS V14.01,2013-01-02 06:47:00,
2013-01-02 01:52:00,24.0,14.3,29.96,NW,311,4.0,17.0,66,0.00,,---,0.00,VWS V14.01,2013-01-02 06:52:00,
2013-01-02 01:57:00,23.9,14.2,29.96,WNW,294,3.0,17.0,66,0.00,,---,0.00,VWS V14.01,2013-01-02 06:57:00,
2013-01-02 02:02:00,23.8,14.5,29.97,WNW,296,8.0,13.0,67,0.00,,---,0.00,VWS V14.01,2013-01-02 07:02:00,
2013-01-02 02:07:00,23.6,13.9,29.97,WNW,299,2.0,13.0,66,0.00,,---,0.00,VWS V14.01,2013-01-02 07:07:00,
2013-01-02 02:12:00,23.6,13.9,29.97,NW,317,6.0,13.0,66,0.00,,---,0.00,VWS V14.01,2013-01-02 07:12:00,
2013-01-02 02:17:00,23.5,14.2,29.97,West,259,3.0,13.0,67,0.00,,---,0.00,VWS V14.01,2013-01-02 07:17:00,
2013-01-02 02:22:00,23.5,14.2,29.97,WNW,303,7.0,13.0,67,0.00,,---,0.00,VWS V14.01,2013-01-02 07:22:00,
2013-01-02 02:27:00,23.4,14.1,29.98,WSW,248,1.0,13.0,67,0.00,,---,0.00,VWS V14.01,2013-01-02 07:27:00,
2013-01-02 02:32:00,23.3,14.0,29.98,WSW,257,4.0,8.0,67,0.00,,---,0.00,VWS V14.01,2013-01-02 07:32:00,
2013-01-02 02:37:00,23.2,13.5,29.98,WNW,282,3.0,12.0,66,0.00,,---,0.00,VWS V14.01,2013-01-02 07:37:00,
2013-01-02 02:42:00,23.1,13.4,29.98,NW,321,3.0,12.0,66,0.00,,---,0.00,VWS V14.01,2013-01-02 07:42:00,
2013-01-02 02:47:00,23.0,13.4,29.98,West,271,3.0,12.0,66,0.00,,---,0.00,VWS V14.01,2013-01-02 07:47:00,
2013-01-02 02:52:00,22.9,13.6,29.98,WSW,251,7.0,12.0,67,0.00,,---,0.00,VWS V14.01,2013-01-02 07:52:00,
2013-01-02 02:57:00,22.9,13.3,29.98,WSW,248,0.0,12.0,66,0.00,,---,0.00,VWS V14.01,2013-01-02 07:57:00,
2013-01-02 03:02:00,22.8,13.2,29.97,WNW,296,2.0,10.0,66,0.00,,---,0.00,VWS V14.01,2013-01-02 08:02:00,
2013-01-02 03:07:00,22.7,13.1,29.98,WNW,283,2.0,15.0,66,0.00,,---,0.00,VWS V14.01,2013-01-02 08:07:00,
2013-01-02 03:12:00,22.6,13.0,29.98,WNW,295,3.0,15.0,66,0.00,,---,0.00,VWS V14.01,2013-01-02 08:12:00,
2013-01-02 03:17:00,22.6,13.0,29.97,NW,304,7.0,15.0,66,0.00,,---,0.00,VWS V14.01,2013-01-02 08:17:00,
2013-01-02 03:22:00,22.5,12.9,29.97,WNW,303,0.0,16.0,66,0.00,,---,0.00,VWS V14.01,2013-01-02 08:22:00,
2013-01-02 03:27:00,22.4,12.4,29.97,NW,319,10.0,16.0,65,0.00,,---,0.00,VWS V14.01,2013-01-02 08:27:00,
2013-01-02 03:32:00,22.3,12.3,29.97,West,268,1.0,10.0,65,0.00,,---,0.00,VWS V14.01,2013-01-02 08:32:00,
2013-01-02 03:37:00,22.2,12.2,29.96,NW,320,3.0,10.0,65,0.00,,---,0.00,VWS V14.01,2013-01-02 08:37:00,
2013-01-02 03:42:00,22.0,12.1,29.96,NW,309,6.0,13.0,65,0.00,,---,0.00,VWS V14.01,2013-01-02 08:42:00,
2013-01-02 03:47:00,21.9,11.6,29.97,WNW,303,7.0,13.0,64,0.00,,---,0.00,VWS V14.01,2013-01-02 08:47:00,
2013-01-02 03:52:00,21.8,11.5,29.97,NNW,329,3.0,13.0,64,0.00,,---,0.00,VWS V14.01,2013-01-02 08:52:00,
2013-01-02 03:57:00,21.7,11.8,29.98,West,260,0.0,13.0,65,0.00,,---,0.00,VWS V14.01,2013-01-02 08:57:00,
2013-01-02 04:02:00,21.6,11.7,29.97,NW,313,10.0,13.0,65,0.00,,---,0.00,VWS V14.01,2013-01-02 09:02:00,
2013-01-02 04:07:00,21.5,11.6,29.97,NW,314,8.0,13.0,65,0.00,,---,0.00,VWS V14.01,2013-01-02 09:07:00,
2013-01-02 04:12:00,21.4,11.1,29.97,NW,305,5.0,13.0,64,0.00,,---,0.00,VWS V14.01,2013-01-02 09:12:00,
2013-01-02 04:17:00,21.4,11.1,29.97,NW,312,1.0,13.0,64,0.00,,---,0.00,VWS V14.01,2013-01-02 09:17:00,
2013-01-02 04:22:00,21.4,11.1,29.97,NW,309,0.0,13.0,64,0.00,,---,0.00,VWS V14.01,2013-01-02 09:22:00,
2013-01-02 04:27:00,21.3,11.4,29.97,WNW,303,7.0,14.0,65,0.00,,---,0.00,VWS V14.01,2013-01-02 09:27:00,
2013-01-02 04:32:00,21.2,10.9,29.97,NW,306,8.0,12.0,64,0.00,,---,0.00,VWS V14.01,2013-01-02 09:32:00,
2013-01-02 04:37:00,21.2,10.9,29.97,WNW,302,7.0,12.0,64,0.00,,---,0.00,VWS V14.01,2013-01-02 09:37:00,
2013-01-02 04:42:00,21.1,10.8,29.97,NW,322,3.0,16.0,64,0.00,,---,0.00,VWS V14.01,2013-01-02 09:42:00,
2013-01-02 04:47:00,21.1,11.2,29.96,NW,309,2.0,16.0,65,0.00,,---,0.00,VWS V14.01,2013-01-02 09:47:00,
2013-01-02 04:52:00,21.0,11.4,29.96,NW,304,7.0,16.0,66,0.00,,---,0.00,VWS V14.01,2013-01-02 09:52:00,
2013-01-02 04:57:00,20.9,11.0,29.97,NW,305,7.0,16.0,65,0.00,,---,0.00,VWS V14.01,2013-01-02 09:57:00,
2013-01-02 05:02:00,20.9,11.3,29.97,NW,309,4.0,8.0,66,0.00,,---,0.00,VWS V14.01,2013-01-02 10:02:00,
2013-01-02 05:07:00,20.8,11.2,29.97,WNW,302,7.0,10.0,66,0.00,,---,0.00,VWS V14.01,2013-01-02 10:07:00,
2013-01-02 05:12:00,20.8,11.2,29.97,WNW,303,6.0,10.0,66,0.00,,---,0.00,VWS V14.01,2013-01-02 10:12:00,
2013-01-02 05:17:00,20.7,11.1,29.97,WNW,301,0.0,11.0,66,0.00,,---,0.00,VWS V14.01,2013-01-02 10:17:00,
2013-01-02 05:22:00,20.7,11.5,29.97,NW,322,0.0,11.0,67,0.00,,---,0.00,VWS V14.01,2013-01-02 10:22:00,
2013-01-02 05:27:00,20.7,11.8,29.97,WNW,292,0.0,14.0,68,0.00,,---,0.00,VWS V14.01,2013-01-02 10:27:00,
2013-01-02 05:32:00,20.7,11.8,29.97,NW,310,3.0,7.0,68,0.00,,---,0.00,VWS V14.01,2013-01-02 10:32:00,
2013-01-02 05:37:00,20.7,11.8,29.97,West,281,3.0,13.0,68,0.00,,---,0.00,VWS V14.01,2013-01-02 10:37:00,
2013-01-02 05:42:00,20.7,12.1,29.97,WNW,295,1.0,13.0,69,0.00,,---,0.00,VWS V14.01,2013-01-02 10:42:00,
2013-01-02 05:47:00,20.8,12.2,29.97,NW,307,7.0,13.0,69,0.00,,---,0.00,VWS V14.01,2013-01-02 10:47:00,
2013-01-02 05:52:00,20.9,12.7,29.97,NW,309,10.0,13.0,70,0.00,,---,0.00,VWS V14.01,2013-01-02 10:52:00,
2013-01-02 05:57:00,20.9,12.7,29.97,WNW,295,2.0,14.0,70,0.00,,---,0.00,VWS V14.01,2013-01-02 10:57:00,
2013-01-02 06:02:00,20.9,12.7,29.98,NW,316,6.0,9.0,70,0.00,,---,0.00,VWS V14.01,2013-01-02 11:02:00,
2013-01-02 06:07:00,20.8,12.9,29.98,WNW,299,0.0,10.0,71,0.00,,---,0.00,VWS V14.01,2013-01-02 11:07:00,
2013-01-02 06:12:00,20.8,12.9,29.98,WNW,296,1.0,11.0,71,0.00,,---,0.00,VWS V14.01,2013-01-02 11:12:00,
2013-01-02 06:17:00,20.7,12.5,29.98,NW,311,8.0,11.0,70,0.00,,---,0.00,VWS V14.01,2013-01-02 11:17:00,
2013-01-02 06:22:00,20.7,12.8,29.98,NW,319,0.0,11.0,71,0.00,,---,0.00,VWS V14.01,2013-01-02 11:22:00,
2013-01-02 06:27:00,20.7,13.1,29.98,WNW,302,9.0,11.0,72,0.00,,---,0.00,VWS V14.01,2013-01-02 11:27:00,
2013-01-02 06:32:00,20.6,13.0,29.97,NW,305,8.0,9.0,72,0.00,,---,0.00,VWS V14.01,2013-01-02 11:32:00,
2013-01-02 06:37:00,20.5,12.6,29.98,NW,309,9.0,11.0,71,0.00,,---,0.00,VWS V14.01,2013-01-02 11:37:00,
2013-01-02 06:42:00,20.4,12.8,29.98,WNW,287,11.0,11.0,72,0.00,,---,0.00,VWS V14.01,2013-01-02 11:42:00,
2013-01-02 06:47:00,20.4,13.1,29.98,NW,309,6.0,11.0,73,0.00,,---,0.00,VWS V14.01,2013-01-02 11:47:00,
2013-01-02 06:52:00,20.4,13.1,29.98,NW,311,0.0,11.0,73,0.00,,---,0.00,VWS V14.01,2013-01-02 11:52:00,
2013-01-02 06:57:00,20.4,13.1,29.97,NNW,329,12.0,12.0,73,0.00,,---,0.00,VWS V14.01,2013-01-02 11:57:00,
2013-01-02 07:02:00,20.4,13.4,29.98,WNW,301,7.0,10.0,74,0.00,,---,0.00,VWS V14.01,2013-01-02 12:02:00,
2013-01-02 07:07:00,20.5,13.9,29.97,WNW,302,6.0,11.0,75,0.00,,---,0.00,VWS V14.01,2013-01-02 12:07:00,
2013-01-02 07:12:00,20.6,13.9,29.97,NW,310,9.0,11.0,75,0.00,,---,0.00,VWS V14.01,2013-01-02 12:12:00,
2013-01-02 07:17:00,20.6,13.9,29.97,WNW,303,4.0,11.0,75,0.00,,---,0.00,VWS V14.01,2013-01-02 12:17:00,
2013-01-02 07:22:00,20.7,14.0,29.97,NW,312,4.0,11.0,75,0.00,,---,0.00,VWS V14.01,2013-01-02 12:22:00,
2013-01-02 07:27:00,20.8,14.4,29.97,NW,317,10.0,11.0,76,0.00,,---,0.00,VWS V14.01,2013-01-02 12:27:00,
2013-01-02 07:32:00,20.8,14.4,29.97,WNW,299,0.0,5.0,76,0.00,,---,0.00,VWS V14.01,2013-01-02 12:32:00,
2013-01-02 07:37:00,20.8,14.7,29.97,WNW,286,0.0,7.0,77,0.00,,---,0.00,VWS V14.01,2013-01-02 12:37:00,
2013-01-02 07:42:00,21.0,14.9,29.97,NW,306,3.0,8.0,77,0.00,,---,0.00,VWS V14.01,2013-01-02 12:42:00,
2013-01-02 07:47:00,21.2,14.8,29.97,West,269,4.0,8.0,76,0.00,,---,0.00,VWS V14.01,2013-01-02 12:47:00,
2013-01-02 07:52:00,21.4,15.0,29.97,NW,312,0.0,10.0,76,0.00,,---,0.00,VWS V14.01,2013-01-02 12:52:00,
2013-01-02 07:57:00,21.5,15.1,29.97,West,269,1.0,10.0,76,0.00,,---,0.00,VWS V14.01,2013-01-02 12:57:00,
2013-01-02 08:02:00,21.7,15.0,29.97,West,267,0.0,12.0,75,0.00,,---,0.00,VWS V14.01,2013-01-02 13:02:00,
2013-01-02 08:07:00,21.8,15.1,29.97,West,273,0.0,12.0,75,0.00,,---,0.00,VWS V14.01,2013-01-02 13:07:00,
2013-01-02 08:12:00,22.0,15.6,29.97,WNW,296,6.0,12.0,76,0.00,,---,0.00,VWS V14.01,2013-01-02 13:12:00,
2013-01-02 08:17:00,22.1,15.4,29.97,NNW,330,9.0,12.0,75,0.00,,---,0.00,VWS V14.01,2013-01-02 13:17:00,
2013-01-02 08:22:00,22.2,15.2,29.97,WSW,244,0.0,12.0,74,0.00,,---,0.00,VWS V14.01,2013-01-02 13:22:00,
2013-01-02 08:27:00,22.5,15.5,29.97,WSW,256,3.0,12.0,74,0.00,,---,0.00,VWS V14.01,2013-01-02 13:27:00,
2013-01-02 08:32:00,22.6,15.6,29.97,NW,304,3.0,7.0,74,0.00,,---,0.00,VWS V14.01,2013-01-02 13:32:00,
2013-01-02 08:37:00,22.8,15.5,29.97,NW,314,0.0,7.0,73,0.00,,---,0.00,VWS V14.01,2013-01-02 13:37:00,
2013-01-02 08:42:00,23.0,15.3,29.97,NW,307,0.0,7.0,72,0.00,,---,0.00,VWS V14.01,2013-01-02 13:42:00,
2013-01-02 08:47:00,23.2,15.8,29.98,NNW,337,3.0,8.0,73,0.00,,---,0.00,VWS V14.01,2013-01-02 13:47:00,
2013-01-02 08:52:00,23.3,15.6,29.98,West,259,4.0,9.0,72,0.00,,---,0.00,VWS V14.01,2013-01-02 13:52:00,
2013-01-02 08:57:00,23.6,15.9,29.97,NW,311,0.0,9.0,72,0.00,,---,0.00,VWS V14.01,2013-01-02 13:57:00,
2013-01-02 09:02:00,24.0,16.3,29.98,WNW,303,6.0,6.0,72,0.00,,---,0.00,VWS V14.01,2013-01-02 14:02:00,
2013-01-02 09:07:00,24.5,16.5,29.98,WSW,255,0.0,7.0,71,0.00,,---,0.00,VWS V14.01,2013-01-02 14:07:00,
2013-01-02 09:12:00,24.8,16.4,29.98,West,277,0.0,8.0,70,0.00,,---,0.00,VWS V14.01,2013-01-02 14:12:00,
2013-01-02 09:17:00,25.1,16.4,29.98,NNW,330,2.0,9.0,69,0.00,,---,0.00,VWS V14.01,2013-01-02 14:17:00,
2013-01-02 09:22:00,25.4,16.7,29.98,West,272,1.0,9.0,69,0.00,,---,0.00,VWS V14.01,2013-01-02 14:22:00,
2013-01-02 09:27:00,25.8,17.0,29.98,WNW,299,1.0,9.0,69,0.00,,---,0.00,VWS V14.01,2013-01-02 14:27:00,
2013-01-02 09:32:00,26.1,16.7,29.98,WNW,297,5.0,5.0,67,0.00,,---,0.00,VWS V14.01,2013-01-02 14:32:00,
2013-01-02 09:37:00,26.6,17.1,29.99,WNW,298,4.0,6.0,67,0.00,,---,0.00,VWS V14.01,2013-01-02 14:37:00,
2013-01-02 09:42:00,26.9,16.7,29.99,West,272,8.0,8.0,65,0.00,,---,0.00,VWS V14.01,2013-01-02 14:42:00,
2013-01-02 09:47:00,27.1,16.9,29.99,WNW,292,0.0,12.0,65,0.00,,---,0.00,VWS V14.01,2013-01-02 14:47:00,
2013-01-02 09:52:00,27.4,17.2,29.99,NW,307,4.0,12.0,65,0.00,,---,0.00,VWS V14.01,2013-01-02 14:52:00,
2013-01-02 09:57:00,27.6,17.0,29.99,WNW,294,9.0,12.0,64,0.00,,---,0.00,VWS V14.01,2013-01-02 14:57:00,
2013-01-02 10:02:00,27.8,16.9,29.99,WNW,290,1.0,8.0,63,0.00,,---,0.00,VWS V14.01,2013-01-02 15:02:00,
2013-01-02 10:07:00,28.1,17.5,29.99,WNW,290,6.0,8.0,64,0.00,,---,0.00,VWS V14.01,2013-01-02 15:07:00,
2013-01-02 10:12:00,28.3,17.3,29.99,WNW,302,5.0,12.0,63,0.00,,---,0.00,VWS V14.01,2013-01-02 15:12:00,
2013-01-02 10:17:00,28.7,17.7,29.99,West,269,4.0,12.0,63,0.00,,---,0.00,VWS V14.01,2013-01-02 15:17:00,
2013-01-02 10:22:00,28.8,17.8,29.98,WNW,284,0.0,12.0,63,0.00,,---,0.00,VWS V14.01,2013-01-02 15:22:00,
2013-01-02 10:27:00,29.0,18.0,29.98,West,271,1.0,12.0,63,0.00,,---,0.00,VWS V14.01,2013-01-02 15:27:00,
2013-01-02 10:32:00,29.2,17.8,29.98,WNW,296,3.0,8.0,62,0.00,,---,0.00,VWS V14.01,2013-01-02 15:32:00,
2013-01-02 10:37:00,29.2,17.4,29.98,West,273,4.0,8.0,61,0.00,,---,0.00,VWS V14.01,2013-01-02 15:37:00,
2013-01-02 10:42:00,29.4,18.4,29.98,West,265,2.0,8.0,63,0.00,,---,0.00,VWS V14.01,2013-01-02 15:42:00,
2013-01-02 10:47:00,29.5,17.3,29.98,WSW,257,1.0,9.0,60,0.00,,---,0.00,VWS V14.01,2013-01-02 15:47:00,
2013-01-02 10:52:00,29.6,17.8,29.97,West,272,0.0,9.0,61,0.00,,---,0.00,VWS V14.01,2013-01-02 15:52:00,
2013-01-02 10:57:00,29.7,17.5,29.97,WSW,254,6.0,9.0,60,0.00,,---,0.00,VWS V14.01,2013-01-02 15:57:00,
2013-01-02 11:02:00,29.9,18.1,29.98,West,267,2.0,8.0,61,0.00,,---,0.00,VWS V14.01,2013-01-02 16:02:00,
2013-01-02 11:07:00,30.1,19.0,29.98,WSW,245,5.0,8.0,63,0.00,,---,0.00,VWS V14.01,2013-01-02 16:07:00,
2013-01-02 11:12:00,30.3,18.5,29.97,West,269,0.0,12.0,61,0.00,,---,0.00,VWS V14.01,2013-01-02 16:12:00,
2013-01-02 11:17:00,30.4,18.6,29.97,WSW,250,6.0,13.0,61,0.00,,---,0.00,VWS V14.01,2013-01-02 16:17:00,
2013-01-02 11:22:00,30.5,18.7,29.96,West,272,12.0,13.0,61,0.00,,---,0.00,VWS V14.01,2013-01-02 16:22:00,
2013-01-02 11:27:00,30.5,18.3,29.96,WSW,255,4.0,13.0,60,0.00,,---,0.00,VWS V14.01,2013-01-02 16:27:00,
2013-01-02 11:32:00,30.6,18.8,29.96,WSW,245,1.0,8.0,61,0.00,,---,0.00,VWS V14.01,2013-01-02 16:32:00,
2013-01-02 11:37:00,30.6,18.8,29.96,West,273,5.0,17.0,61,0.00,,---,0.00,VWS V14.01,2013-01-02 16:37:00,
2013-01-02 11:42:00,30.7,18.5,29.96,WNW,303,9.0,17.0,60,0.00,,---,0.00,VWS V14.01,2013-01-02 16:42:00,
2013-01-02 11:47:00,30.8,18.6,29.96,WNW,290,0.0,17.0,60,0.00,,---,0.00,VWS V14.01,2013-01-02 16:47:00,
2013-01-02 11:52:00,31.1,19.6,29.96,WSW,244,2.0,17.0,62,0.00,,---,0.00,VWS V14.01,2013-01-02 16:52:00,
2013-01-02 11:57:00,31.2,19.0,29.95,West,259,6.0,17.0,60,0.00,,---,0.00,VWS V14.01,2013-01-02 16:57:00,
2013-01-02 12:02:00,31.3,19.0,29.95,WNW,287,0.0,7.0,60,0.00,,---,0.00,VWS V14.01,2013-01-02 17:02:00,
2013-01-02 12:07:00,31.5,19.2,29.95,WSW,248,7.0,10.0,60,0.00,,---,0.00,VWS V14.01,2013-01-02 17:07:00,
2013-01-02 12:12:00,31.5,19.6,29.95,West,265,0.0,10.0,61,0.00,,---,0.00,VWS V14.01,2013-01-02 17:12:00,
2013-01-02 12:17:00,31.5,19.2,29.95,WSW,254,3.0,12.0,60,0.00,,---,0.00,VWS V14.01,2013-01-02 17:17:00,
2013-01-02 12:22:00,31.6,19.7,29.95,WNW,290,4.0,12.0,61,0.00,,---,0.00,VWS V14.01,2013-01-02 17:22:00,
2013-01-02 12:27:00,31.8,20.3,29.95,WNW,286,0.0,12.0,62,0.00,,---,0.00,VWS V14.01,2013-01-02 17:27:00,
2013-01-02 12:32:00,32.0,20.1,29.95,WNW,297,15.0,15.0,61,0.00,,---,0.00,VWS V14.01,2013-01-02 17:32:00,
2013-01-02 12:37:00,32.0,20.5,29.94,West,275,5.0,15.0,62,0.00,,---,0.00,VWS V14.01,2013-01-02 17:37:00,
2013-01-02 12:42:00,32.1,19.8,29.94,WNW,294,5.0,15.0,60,0.00,,---,0.00,VWS V14.01,2013-01-02 17:42:00,
2013-01-02 12:47:00,32.2,19.9,29.94,WSW,244,3.0,15.0,60,0.00,,---,0.00,VWS V14.01,2013-01-02 17:47:00,
2013-01-02 12:52:00,32.5,20.6,29.94,West,273,2.0,15.0,61,0.00,,---,0.00,VWS V14.01,2013-01-02 17:52:00,
2013-01-02 12:57:00,32.7,20.0,29.94,West,276,6.0,15.0,59,0.00,,---,0.00,VWS V14.01,2013-01-02 17:57:00,
2013-01-02 13:02:00,32.8,20.9,29.94,WNW,289,2.0,6.0,61,0.00,,---,0.00,VWS V14.01,2013-01-02 18:02:00,
2013-01-02 13:07:00,33.0,20.2,29.94,WSW,253,7.0,12.0,59,0.00,,---,0.00,VWS V14.01,2013-01-02 18:07:00,
2013-01-02 13:12:00,33.0,20.2,29.93,WSW,247,8.0,12.0,59,0.00,,---,0.00,VWS V14.01,2013-01-02 18:12:00,
2013-01-02 13:17:00,32.9,20.5,29.93,SW,234,0.0,12.0,60,0.00,,---,0.00,VWS V14.01,2013-01-02 18:17:00,
2013-01-02 13:22:00,33.0,20.6,29.93,NW,312,7.0,12.0,60,0.00,,---,0.00,VWS V14.01,2013-01-02 18:22:00,
2013-01-02 13:27:00,33.2,20.4,29.92,WSW,240,6.0,12.0,59,0.00,,---,0.00,VWS V14.01,2013-01-02 18:27:00,
2013-01-02 13:32:00,33.3,20.1,29.92,NNW,329,0.0,9.0,58,0.00,,---,0.00,VWS V14.01,2013-01-02 18:32:00,
2013-01-02 13:37:00,33.3,20.1,29.92,WSW,252,8.0,12.0,58,0.00,,---,0.00,VWS V14.01,2013-01-02 18:37:00,
2013-01-02 13:42:00,33.0,19.9,29.93,WSW,242,4.0,12.0,58,0.00,,---,0.00,VWS V14.01,2013-01-02 18:42:00,
2013-01-02 13:47:00,32.6,20.7,29.92,WSW,257,2.0,12.0,61,0.00,,---,0.00,VWS V14.01,2013-01-02 18:47:00,
2013-01-02 13:52:00,32.3,20.4,29.93,WSW,249,4.0,12.0,61,0.00,,---,0.00,VWS V14.01,2013-01-02 18:52:00,
2013-01-02 13:57:00,32.1,19.8,29.93,WSW,247,1.0,12.0,60,0.00,,---,0.00,VWS V14.01,2013-01-02 18:57:00,
2013-01-02 14:03:00,31.9,20.0,29.93,NW,304,7.0,12.0,61,0.00,,---,0.00,VWS V14.01,2013-01-02 19:03:00,
2013-01-02 14:09:00,31.6,19.7,29.93,West,259,6.0,12.0,61,0.00,,---,0.00,VWS V14.01,2013-01-02 19:09:00,
2013-01-02 14:14:00,31.5,19.6,29.94,West,266,1.0,12.0,61,0.00,,---,0.00,VWS V14.01,2013-01-02 19:14:00,
2013-01-02 14:19:00,31.5,20.0,29.94,WSW,248,1.0,12.0,62,0.00,,---,0.00,VWS V14.01,2013-01-02 19:19:00,
2013-01-02 14:24:00,31.5,20.0,29.94,WSW,254,1.0,12.0,62,0.00,,---,0.00,VWS V14.01,2013-01-02 19:24:00,
2013-01-02 14:29:00,31.5,20.0,29.94,West,261,0.0,12.0,62,0.00,,---,0.00,VWS V14.01,2013-01-02 19:29:00,
2013-01-02 14:34:00,31.5,20.0,29.95,West,262,1.0,6.0,62,0.00,,---,0.00,VWS V14.01,2013-01-02 19:34:00,
2013-01-02 14:39:00,31.5,19.6,29.95,WNW,286,1.0,7.0,61,0.00,,---,0.00,VWS V14.01,2013-01-02 19:39:00,
2013-01-02 14:44:00,31.4,19.9,29.95,WSW,238,3.0,12.0,62,0.00,,---,0.00,VWS V14.01,2013-01-02 19:44:00,
2013-01-02 14:49:00,31.3,19.8,29.95,WSW,239,7.0,12.0,62,0.00,,---,0.00,VWS V14.01,2013-01-02 19:49:00,
2013-01-02 14:54:00,31.2,20.1,29.96,WSW,238,4.0,12.0,63,0.00,,---,0.00,VWS V14.01,2013-01-02 19:54:00,
2013-01-02 14:59:00,31.1,20.0,29.95,SW,229,6.0,12.0,63,0.00,,---,0.00,VWS V14.01,2013-01-02 19:59:00,
2013-01-02 15:04:00,31.1,20.0,29.96,WSW,245,0.0,12.0,63,0.00,,---,0.00,VWS V14.01,2013-01-02 20:04:00,
2013-01-02 15:09:00,31.1,20.4,29.96,WNW,301,6.0,12.0,64,0.00,,---,0.00,VWS V14.01,2013-01-02 20:09:00,
2013-01-02 15:14:00,31.2,19.7,29.97,West,276,8.0,14.0,62,0.00,,---,0.00,VWS V14.01,2013-01-02 20:14:00,
2013-01-02 15:19:00,31.4,18.7,29.97,WNW,303,7.0,19.0,59,0.00,,---,0.00,VWS V14.01,2013-01-02 20:19:00,
2013-01-02 15:24:00,31.4,18.7,29.97,WNW,301,8.0,19.0,59,0.00,,---,0.00,VWS V14.01,2013-01-02 20:24:00,
2013-01-02 15:29:00,31.4,18.7,29.98,West,276,2.0,20.0,59,0.00,,---,0.00,VWS V14.01,2013-01-02 20:29:00,
2013-01-02 15:34:00,31.3,18.6,29.97,NW,311,6.0,16.0,59,0.00,,---,0.00,VWS V14.01,2013-01-02 20:34:00,
2013-01-02 15:39:00,31.3,18.2,29.97,NW,312,6.0,18.0,58,0.00,,---,0.00,VWS V14.01,2013-01-02 20:39:00,
2013-01-02 15:44:00,31.2,19.0,29.98,NW,305,7.0,18.0,60,0.00,,---,0.00,VWS V14.01,2013-01-02 20:44:00,
2013-01-02 15:49:00,31.1,18.9,29.98,NNW,337,7.0,18.0,60,0.00,,---,0.00,VWS V14.01,2013-01-02 20:49:00,
2013-01-02 15:54:00,31.0,19.1,29.99,WNW,299,0.0,18.0,61,0.00,,---,0.00,VWS V14.01,2013-01-02 20:54:00,
2013-01-02 15:59:00,31.0,19.1,29.99,NW,307,3.0,18.0,61,0.00,,---,0.00,VWS V14.01,2013-01-02 20:59:00,
2013-01-02 16:04:00,30.9,19.0,29.98,West,279,6.0,14.0,61,0.00,,---,0.00,VWS V14.01,2013-01-02 21:04:00,
2013-01-02 16:09:00,30.8,19.0,29.99,NW,311,0.0,16.0,61,0.00,,---,0.00,VWS V14.01,2013-01-02 21:09:00,
2013-01-02 16:14:00,30.7,19.2,29.99,WNW,297,3.0,16.0,62,0.00,,---,0.00,VWS V14.01,2013-01-02 21:14:00,
2013-01-02 16:19:00,30.7,19.2,29.99,NW,306,5.0,16.0,62,0.00,,---,0.00,VWS V14.01,2013-01-02 21:19:00,
2013-01-02 16:24:00,30.6,19.1,30.00,NW,315,0.0,16.0,62,0.00,,---,0.00,VWS V14.01,2013-01-02 21:24:00,
2013-01-02 16:29:00,30.6,19.1,30.00,WNW,297,4.0,16.0,62,0.00,,---,0.00,VWS V14.01,2013-01-02 21:29:00,
2013-01-02 16:34:00,30.6,19.1,30.00,NW,319,2.0,8.0,62,0.00,,---,0.00,VWS V14.01,2013-01-02 21:34:00,
2013-01-02 16:39:00,30.4,19.0,30.00,NW,320,2.0,11.0,62,0.00,,---,0.00,VWS V14.01,2013-01-02 21:39:00,
2013-01-02 16:44:00,30.3,18.9,30.00,West,279,4.0,13.0,62,0.00,,---,0.00,VWS V14.01,2013-01-02 21:44:00,
2013-01-02 16:49:00,30.3,18.9,30.00,NW,311,5.0,14.0,62,0.00,,---,0.00,VWS V14.01,2013-01-02 21:49:00,
2013-01-02 16:54:00,30.2,18.8,30.00,West,261,3.0,14.0,62,0.00,,---,0.00,VWS V14.01,2013-01-02 21:54:00,
2013-01-02 16:59:00,30.1,18.3,30.00,NW,321,4.0,14.0,61,0.00,,---,0.00,VWS V14.01,2013-01-02 21:59:00,
2013-01-02 17:04:00,30.1,18.7,30.01,NW,315,9.0,12.0,62,0.00,,---,0.00,VWS V14.01,2013-01-02 22:04:00,
2013-01-02 17:09:00,30.0,18.2,30.01,NNW,330,8.0,17.0,61,0.00,,---,0.00,VWS V14.01,2013-01-02 22:09:00,
2013-01-02 17:14:00,30.0,18.6,30.01,WNW,301,10.0,17.0,62,0.00,,---,0.00,VWS V14.01,2013-01-02 22:14:00,
2013-01-02 17:19:00,30.0,18.6,30.02,WNW,299,17.0,18.0,62,0.00,,---,0.00,VWS V14.01,2013-01-02 22:19:00,
2013-01-02 17:24:00,29.9,18.5,30.01,NW,308,12.0,18.0,62,0.00,,---,0.00,VWS V14.01,2013-01-02 22:24:00,
2013-01-02 17:29:00,29.9,18.1,30.01,WNW,299,3.0,18.0,61,0.00,,---,0.00,VWS V14.01,2013-01-02 22:29:00,
2013-01-02 17:34:00,29.8,18.4,30.01,NW,311,8.0,11.0,62,0.00,,---,0.00,VWS V14.01,2013-01-02 22:34:00,
2013-01-02 17:39:00,29.7,17.9,30.02,WNW,298,5.0,13.0,61,0.00,,---,0.00,VWS V14.01,2013-01-02 22:39:00,
2013-01-02 17:44:00,29.7,17.9,30.02,NW,311,3.0,15.0,61,0.00,,---,0.00,VWS V14.01,2013-01-02 22:44:00,
2013-01-02 17:49:00,29.7,17.9,30.03,NW,320,2.0,15.0,61,0.00,,---,0.00,VWS V14.01,2013-01-02 22:49:00,
2013-01-02 17:54:00,29.6,17.8,30.03,NNW,328,9.0,15.0,61,0.00,,---,0.00,VWS V14.01,2013-01-02 22:54:00,
2013-01-02 17:59:00,29.6,17.8,30.03,NW,306,7.0,16.0,61,0.00,,---,0.00,VWS V14.01,2013-01-02 22:59:00,
2013-01-02 18:04:00,29.5,17.7,30.03,NNW,335,7.0,11.0,61,0.00,,---,0.00,VWS V14.01,2013-01-02 23:04:00,
2013-01-02 18:09:00,29.4,18.4,30.04,NW,320,4.0,11.0,63,0.00,,---,0.00,VWS V14.01,2013-01-02 23:09:00,
2013-01-02 18:14:00,29.3,18.6,30.04,NNW,328,8.0,11.0,64,0.00,,---,0.00,VWS V14.01,2013-01-02 23:14:00,
2013-01-02 18:19:00,29.1,18.1,30.04,NW,315,2.0,11.0,63,0.00,,---,0.00,VWS V14.01,2013-01-02 23:19:00,
2013-01-02 18:24:00,29.0,18.0,30.05,NW,322,6.0,11.0,63,0.00,,---,0.00,VWS V14.01,2013-01-02 23:24:00,
2013-01-02 18:29:00,28.8,17.8,30.04,NW,317,3.0,11.0,63,0.00,,---,0.00,VWS V14.01,2013-01-02 23:29:00,
2013-01-02 18:34:00,28.7,17.7,30.05,NW,321,5.0,12.0,63,0.00,,---,0.00,VWS V14.01,2013-01-02 23:34:00,
2013-01-02 18:39:00,28.6,17.6,30.05,NW,315,6.0,12.0,63,0.00,,---,0.00,VWS V14.01,2013-01-02 23:39:00,
2013-01-02 18:44:00,28.5,17.9,30.05,WNW,297,10.0,12.0,64,0.00,,---,0.00,VWS V14.01,2013-01-02 23:44:00,
2013-01-02 18:49:00,28.4,17.4,30.05,NNW,342,12.0,14.0,63,0.00,,---,0.00,VWS V14.01,2013-01-02 23:49:00,
2013-01-02 18:54:00,28.4,17.8,30.05,NW,308,5.0,14.0,64,0.00,,---,0.00,VWS V14.01,2013-01-02 23:54:00,
2013-01-02 18:59:00,28.3,17.3,30.06,NNW,330,6.0,14.0,63,0.00,,---,0.00,VWS V14.01,2013-01-02 23:59:00,
2013-01-02 19:04:00,28.2,17.6,30.06,NW,309,3.0,7.0,64,0.00,,---,0.00,VWS V14.01,2013-01-03 00:04:00,
2013-01-02 19:09:00,28.0,17.4,30.06,NW,304,7.0,8.0,64,0.00,,---,0.00,VWS V14.01,2013-01-03 00:09:00,
2013-01-02 19:14:00,28.0,17.4,30.06,WNW,299,5.0,8.0,64,0.00,,---,0.00,VWS V14.01,2013-01-03 00:14:00,
2013-01-02 19:19:00,27.8,17.2,30.06,NW,313,6.0,8.0,64,0.00,,---,0.00,VWS V14.01,2013-01-03 00:19:00,
2013-01-02 19:24:00,27.8,17.6,30.06,NW,308,1.0,8.0,65,0.00,,---,0.00,VWS V14.01,2013-01-03 00:24:00,
2013-01-02 19:29:00,27.7,17.1,30.06,NW,313,0.0,8.0,64,0.00,,---,0.00,VWS V14.01,2013-01-03 00:29:00,
2013-01-02 19:34:00,27.6,17.4,30.05,NW,312,1.0,6.0,65,0.00,,---,0.00,VWS V14.01,2013-01-03 00:34:00,
2013-01-02 19:39:00,27.6,17.4,30.05,NW,304,5.0,10.0,65,0.00,,---,0.00,VWS V14.01,2013-01-03 00:39:00,
2013-01-02 19:44:00,27.5,17.6,30.06,NNW,331,10.0,10.0,66,0.00,,---,0.00,VWS V14.01,2013-01-03 00:44:00,
2013-01-02 19:49:00,27.5,17.6,30.06,NW,311,3.0,10.0,66,0.00,,---,0.00,VWS V14.01,2013-01-03 00:49:00,
2013-01-02 19:54:00,27.4,17.5,30.06,NW,317,3.0,10.0,66,0.00,,---,0.00,VWS V14.01,2013-01-03 00:54:00,
2013-01-02 19:59:00,27.4,17.5,30.06,NNW,330,8.0,10.0,66,0.00,,---,0.00,VWS V14.01,2013-01-03 00:59:00,
2013-01-02 20:04:00,27.4,17.9,30.06,NW,306,2.0,6.0,67,0.00,,---,0.00,VWS V14.01,2013-01-03 01:04:00,
2013-01-02 20:09:00,27.3,17.8,30.06,WNW,303,3.0,6.0,67,0.00,,---,0.00,VWS V14.01,2013-01-03 01:09:00,
2013-01-02 20:14:00,27.3,17.8,30.06,West,280,3.0,6.0,67,0.00,,---,0.00,VWS V14.01,2013-01-03 01:14:00,
2013-01-02 20:19:00,27.2,17.7,30.06,West,266,0.0,6.0,67,0.00,,---,0.00,VWS V14.01,2013-01-03 01:19:00,
2013-01-02 20:24:00,27.2,17.7,30.06,WNW,294,0.0,8.0,67,0.00,,---,0.00,VWS V14.01,2013-01-03 01:24:00,
2013-01-02 20:29:00,27.1,18.0,30.06,NW,312,2.0,11.0,68,0.00,,---,0.00,VWS V14.01,2013-01-03 01:29:00,
2013-01-02 20:34:00,27.2,18.0,30.06,NW,321,4.0,9.0,68,0.00,,---,0.00,VWS V14.01,2013-01-03 01:34:00,
2013-01-02 20:39:00,27.2,18.0,30.07,WNW,303,4.0,12.0,68,0.00,,---,0.00,VWS V14.01,2013-01-03 01:39:00,
2013-01-02 20:44:00,27.3,18.1,30.07,West,274,3.0,12.0,68,0.00,,---,0.00,VWS V14.01,2013-01-03 01:44:00,
2013-01-02 20:49:00,27.3,18.5,30.06,NW,325,5.0,12.0,69,0.00,,---,0.00,VWS V14.01,2013-01-03 01:49:00,
2013-01-02 20:54:00,27.2,18.0,30.06,NW,311,7.0,12.0,68,0.00,,---,0.00,VWS V14.01,2013-01-03 01:54:00,
2013-01-02 20:59:00,27.2,18.0,30.06,West,277,0.0,14.0,68,0.00,,---,0.00,VWS V14.01,2013-01-03 01:59:00,
2013-01-02 21:04:00,27.2,18.0,30.07,NW,304,3.0,11.0,68,0.00,,---,0.00,VWS V14.01,2013-01-03 02:04:00,
2013-01-02 21:09:00,27.2,18.0,30.07,NW,309,5.0,11.0,68,0.00,,---,0.00,VWS V14.01,2013-01-03 02:09:00,
2013-01-02 21:14:00,27.1,18.3,30.06,NNW,329,5.0,11.0,69,0.00,,---,0.00,VWS V14.01,2013-01-03 02:14:00,
2013-01-02 21:19:00,27.0,17.9,30.07,WNW,296,2.0,12.0,68,0.00,,---,0.00,VWS V14.01,2013-01-03 02:19:00,
2013-01-02 21:24:00,26.8,17.7,30.07,NW,321,8.0,12.0,68,0.00,,---,0.00,VWS V14.01,2013-01-03 02:24:00,
2013-01-02 21:29:00,26.7,17.2,30.07,WNW,303,2.0,12.0,67,0.00,,---,0.00,VWS V14.01,2013-01-03 02:29:00,
2013-01-02 21:34:00,26.5,17.0,30.07,NW,311,8.0,11.0,67,0.00,,---,0.00,VWS V14.01,2013-01-03 02:34:00,
2013-01-02 21:39:00,26.4,16.9,30.07,WNW,303,4.0,14.0,67,0.00,,---,0.00,VWS V14.01,2013-01-03 02:39:00,
2013-01-02 21:44:00,26.2,16.8,30.07,NW,309,5.0,14.0,67,0.00,,---,0.00,VWS V14.01,2013-01-03 02:44:00,
2013-01-02 21:49:00,26.0,16.9,30.07,WNW,303,4.0,14.0,68,0.00,,---,0.00,VWS V14.01,2013-01-03 02:49:00,
2013-01-02 21:54:00,25.8,16.7,30.08,NW,314,2.0,14.0,68,0.00,,---,0.00,VWS V14.01,2013-01-03 02:54:00,
2013-01-02 21:59:00,25.6,16.2,30.08,NW,323,4.0,17.0,67,0.00,,---,0.00,VWS V14.01,2013-01-03 02:59:00,
2013-01-02 22:04:00,25.4,16.7,30.09,NW,311,3.0,8.0,69,0.00,,---,0.00,VWS V14.01,2013-01-03 03:04:00,
2013-01-02 22:09:00,25.3,16.6,30.09,WNW,289,6.0,12.0,69,0.00,,---,0.00,VWS V14.01,2013-01-03 03:09:00,
2013-01-02 22:14:00,25.1,16.0,30.09,NW,315,2.0,15.0,68,0.00,,---,0.00,VWS V14.01,2013-01-03 03:14:00,
2013-01-02 22:19:00,24.8,15.4,30.09,WNW,285,0.0,18.0,67,0.00,,---,0.00,VWS V14.01,2013-01-03 03:19:00,
2013-01-02 22:24:00,24.7,16.0,30.09,WNW,299,8.0,18.0,69,0.00,,---,0.00,VWS V14.01,2013-01-03 03:24:00,
2013-01-02 22:29:00,24.5,15.5,30.08,NW,317,6.0,18.0,68,0.00,,---,0.00,VWS V14.01,2013-01-03 03:29:00,
2013-01-02 22:35:00,24.3,14.9,30.08,NW,311,8.0,16.0,67,0.00,,---,0.00,VWS V14.01,2013-01-03 03:35:00,
2013-01-02 22:41:00,24.1,14.7,30.09,NW,311,6.0,18.0,67,0.01,,---,0.01,VWS V14.01,2013-01-03 03:41:00,
2013-01-02 22:46:00,24.0,14.6,30.09,NW,315,5.0,18.0,67,0.01,,---,0.01,VWS V14.01,2013-01-03 03:46:00,
2013-01-02 22:51:00,23.9,14.2,30.10,WNW,302,7.0,18.0,66,0.01,,---,0.01,VWS V14.01,2013-01-03 03:51:00,
2013-01-02 22:56:00,23.8,14.1,30.09,NW,308,4.0,18.0,66,0.01,,---,0.01,VWS V14.01,2013-01-03 03:56:00,
2013-01-02 23:01:00,23.7,14.0,30.09,NW,319,8.0,18.0,66,0.01,,---,0.01,VWS V14.01,2013-01-03 04:01:00,
2013-01-02 23:06:00,23.5,13.8,30.09,NNW,331,8.0,13.0,66,0.01,,---,0.01,VWS V14.01,2013-01-03 04:06:00,
2013-01-02 23:11:00,23.4,13.7,30.10,NW,312,6.0,13.0,66,0.01,,---,0.01,VWS V14.01,2013-01-03 04:11:00,
2013-01-02 23:16:00,23.3,13.3,30.10,NW,309,6.0,13.0,65,0.01,,---,0.01,VWS V14.01,2013-01-03 04:16:00,
2013-01-02 23:21:00,23.1,12.8,30.10,NW,310,5.0,17.0,64,0.01,,---,0.01,VWS V14.01,2013-01-03 04:21:00,
2013-01-02 23:26:00,23.0,12.6,30.09,NW,323,10.0,17.0,64,0.01,,---,0.01,VWS V14.01,2013-01-03 04:26:00,
2013-01-02 23:31:00,22.9,12.6,30.10,NW,312,5.0,17.0,64,0.01,,---,0.01,VWS V14.01,2013-01-03 04:31:00,
2013-01-02 23:36:00,22.7,12.4,30.10,NW,308,6.0,12.0,64,0.01,,---,0.01,VWS V14.01,2013-01-03 04:36:00,
2013-01-02 23:41:00,22.6,12.3,30.10,NNW,328,5.0,12.0,64,0.01,,---,0.01,VWS V14.01,2013-01-03 04:41:00,
2013-01-02 23:46:00,22.5,11.8,30.11,WNW,282,0.0,12.0,63,0.01,,---,0.01,VWS V14.01,2013-01-03 04:46:00,
2013-01-02 23:51:00,22.4,12.1,30.10,West,278,2.0,12.0,64,0.01,,---,0.01,VWS V14.01,2013-01-03 04:51:00,
2013-01-02 23:56:00,22.3,12.0,30.10,WNW,289,2.0,14.0,64,0.01,,---,0.01,VWS V14.01,2013-01-03 04:56:00,